Location: Holiday Acres Laynes 2 Mobile Home Park
(26.7249°N, 81.8671°W)
Time: 06:35:23
(UTC+00:00)

Cosmos 2154 Rocket - Pass Details

Date: 25 November 2020
Orbit: 966 x 996 km, 82.9° (Epoch: 21 January)

Event Time Altitude Azimuth Distance (km) Brightness Sun altitude
Rises 23:03:21 0° 352° (N) 3,708 6.9 -6.9°
Reaches altitude 10° 23:05:52 10° 350° (N) 2,760 6.3 -7.4°
Maximum altitude 23:12:11 73° 267° (W) 1,038 4.4 -8.7°
Drops below altitude 10° 23:18:29 10° 183° (S) 2,752 6.7 -10.1°
Sets 23:21:00 0° 182° (S) 3,697 7.3 -10.6°
